| time (UTC) | temp F | wind direction | speed MPH | gust MPH | rain 1hr in | rain 24hr in | rain mn in | humidity % | barometer mb |
| 20260905200038 | 92 | 64 | 2.0 | 7.0 | 0.00 | 0.34 | 0.34 | 63 | 1013.7 |
| 20260905194534 | 92 | 96 | 2.0 | 7.0 | 0.00 | 0.34 | 0.34 | 68 | 1014.0 |
| 20260905193032 | 89 | 157 | 2.0 | 5.0 | 0.00 | 0.34 | 0.34 | 73 | 1014.0 |
| 20260905191533 | 88 | 0 | 0.0 | 6.0 | 0.00 | 0.34 | 0.34 | 76 | 1014.4 |
| 20260905190036 | 87 | 97 | 2.0 | 6.0 | 0.00 | 0.34 | 0.34 | 77 | 1014.5 |
| 20260905184543 | 86 | 73 | 4.0 | 10.0 | 0.00 | 0.34 | 0.34 | 77 | 1014.8 |
| 20260905183036 | 84 | 105 | 2.0 | 7.0 | 0.00 | 0.34 | 0.34 | 80 | 1014.8 |
| 20260905181537 | 84 | 96 | 0.0 | 4.0 | 0.12 | 0.34 | 0.34 | 85 | 1015.0 |
| 20260905180040 | 83 | 0 | 0.0 | 2.0 | 0.34 | 0.34 | 0.34 | 84 | 1015.2 |
| 20260905174534 | 82 | 0 | 0.0 | 3.0 | 0.34 | 0.34 | 0.34 | 86 | 1015.5 |
| 20260905173036 | 83 | 0 | 0.0 | 3.0 | 0.34 | 0.34 | 0.34 | 85 | 1015.8 |
| 20260905171534 | 87 | 129 | 3.0 | 8.0 | 0.20 | 0.20 | 0.20 | 78 | 1016.0 |
| 20260905170035 | 90 | 0 | 0.0 | 3.0 | 0.00 | 0.00 | 0.00 | 68 | 1015.6 |
| 20260905164534 | 91 | 0 | 0.0 | 4.0 | 0.00 | 0.00 | 0.00 | 68 | 1015.6 |
| 20260905163035 | 91 | 321 | 1.0 | 5.0 | 0.00 | 0.00 | 0.00 | 67 | 1015.6 |
| 20260905161544 | 91 | 0 | 0.0 | 4.0 | 0.00 | 0.00 | 0.00 | 66 | 1015.6 |
| 20260905160036 | 90 | 0 | 0.0 | 5.0 | 0.00 | 0.00 | 0.00 | 70 | 1015.8 |
| 20260905154539 | 89 | 0 | 0.0 | 1.0 | 0.00 | 0.00 | 0.00 | 72 | 1015.8 |
| 20260905153034 | 89 | 0 | 0.0 | 4.0 | 0.00 | 0.00 | 0.00 | 73 | 1015.8 |
| 20260905151535 | 89 | 0 | 0.0 | 1.0 | 0.00 | 0.00 | 0.00 | 73 | 1015.7 |
| 20260905150035 | 88 | 0 | 0.0 | 4.0 | 0.00 | 0.00 | 0.00 | 75 | 1015.7 |
| 20260905144536 | 88 | 0 | 0.0 | 4.0 | 0.00 | 0.00 | 0.00 | 77 | 1015.7 |
| 20260905143036 | 87 | 0 | 0.0 | 1.0 | 0.00 | 0.00 | 0.00 | 78 | 1015.8 |
| 20260905141536 | 87 | 0 | 0.0 | 2.0 | 0.00 | 0.00 | 0.00 | 81 | 1015.7 |
| 20260905140036 | 86 | 0 | 0.0 | 0.0 | 0.00 | 0.00 | 0.00 | 82 | 1015.6 |
| 20260905134539 | 85 | 0 | 0.0 | 0.0 | 0.00 | 0.00 | 0.00 | 82 | 1015.6 |
| 20260905133032 | 84 | 0 | 0.0 | 0.0 | 0.00 | 0.00 | 0.00 | 84 | 1015.5 |
| 20260905131535 | 82 | 0 | 0.0 | 0.0 | 0.00 | 0.00 | 0.00 | 87 | 1015.6 |
| 20260905130034 | 81 | 0 | 0.0 | 1.0 | 0.00 | 0.00 | 0.00 | 89 | 1015.7 |
| 20260905124535 | 80 | 0 | 0.0 | 2.0 | 0.00 | 0.00 | 0.00 | 90 | 1015.6 |
| 20260905123035 | 79 | 0 | 0.0 | 0.0 | 0.00 | 0.00 | 0.00 | 89 | 1015.5 |
| 20260905121537 | 79 | 0 | 0.0 | 0.0 | 0.00 | 0.00 | 0.00 | 89 | 1015.2 |
| 20260905120035 | 79 | 0 | 0.0 | 0.0 | 0.00 | 0.00 | 0.00 | 89 | 1015.1 |
| 20260905114535 | 79 | 0 | 0.0 | 0.0 | 0.00 | 0.00 | 0.00 | 89 | 1014.9 |
| 20260905113036 | 79 | 0 | 0.0 | 0.0 | 0.00 | 0.00 | 0.00 | 88 | 1014.7 |
| 20260905111543 | 80 | 0 | 0.0 | 0.0 | 0.00 | 0.00 | 0.00 | 88 | 1014.6 |
| 20260905110035 | 80 | 0 | 0.0 | 0.0 | 0.00 | 0.00 | 0.00 | 88 | 1014.6 |
| 20260905104535 | 80 | 0 | 0.0 | 0.0 | 0.00 | 0.00 | 0.00 | 88 | 1014.6 |
| 20260905103038 | 80 | 0 | 0.0 | 0.0 | 0.00 | 0.00 | 0.00 | 87 | 1014.6 |
| 20260905101536 | 80 | 0 | 0.0 | 0.0 | 0.00 | 0.00 | 0.00 | 87 | 1014.6 |
| 20260905100037 | 81 | 0 | 0.0 | 0.0 | 0.00 | 0.00 | 0.00 | 86 | 1014.5 |
| 20260905094536 | 81 | 0 | 0.0 | 0.0 | 0.00 | 0.00 | 0.00 | 87 | 1014.5 |
| 20260905093037 | 81 | 0 | 0.0 | 0.0 | 0.00 | 0.00 | 0.00 | 86 | 1014.7 |
| 20260905091537 | 81 | 0 | 0.0 | 0.0 | 0.00 | 0.00 | 0.00 | 86 | 1014.5 |
| 20260905090035 | 81 | 0 | 0.0 | 0.0 | 0.00 | 0.00 | 0.00 | 86 | 1014.7 |
| 20260905084546 | 82 | 0 | 0.0 | 2.0 | 0.00 | 0.05 | 0.00 | 86 | 1014.5 |
| 20260905083033 | 82 | 0 | 0.0 | 1.0 | 0.00 | 0.05 | 0.00 | 86 | 1014.2 |
| 20260905081532 | 82 | 0 | 0.0 | 0.0 | 0.00 | 0.05 | 0.00 | 86 | 1014.4 |
| 20260905080039 | 82 | 0 | 0.0 | 0.0 | 0.00 | 0.05 | 0.00 | 86 | 1014.4 |
| 20260905074536 | 82 | 0 | 0.0 | 0.0 | 0.00 | 0.05 | 0.00 | 86 | 1014.5 |
| 20260905073038 | 82 | 0 | 0.0 | 0.0 | 0.00 | 0.05 | 0.00 | 85 | 1014.6 |
| 20260905071542 | 83 | 0 | 0.0 | 0.0 | 0.00 | 0.05 | 0.00 | 85 | 1014.9 |
| 20260905070100 | 83 | 0 | 0.0 | 0.0 | 0.00 | 0.05 | 0.00 | 85 | 1014.9 |
| 20260905064535 | 83 | 0 | 0.0 | 0.0 | 0.00 | 0.05 | 0.00 | 84 | 1015.2 |
| 20260905063033 | 83 | 0 | 0.0 | 0.0 | 0.00 | 0.05 | 0.00 | 84 | 1015.2 |
| 20260905061535 | 83 | 0 | 0.0 | 0.0 | 0.00 | 0.05 | 0.00 | 84 | 1015.4 |
| 20260905060035 | 84 | 0 | 0.0 | 1.0 | 0.00 | 0.05 | 0.00 | 83 | 1015.3 |
| 20260905054547 | 84 | 0 | 1.0 | 4.0 | 0.00 | 0.05 | 0.00 | 83 | 1015.2 |
| 20260905053042 | 84 | 0 | 0.0 | 4.0 | 0.00 | 0.05 | 0.00 | 83 | 1015.2 |
| 20260905051541 | 84 | 140 | 0.0 | 4.0 | 0.00 | 0.05 | 0.00 | 83 | 1015.1 |
| 20260905050042 | 84 | 0 | 1.0 | 3.0 | 0.00 | 0.05 | 0.00 | 83 | 1015.1 |
| 20260905044534 | 84 | 0 | 0.0 | 3.0 | 0.00 | 0.05 | 0.05 | 82 | 1015.1 |
| 20260905043034 | 85 | 0 | 0.0 | 3.0 | 0.00 | 0.05 | 0.05 | 82 | 1015.2 |
| 20260905041541 | 85 | 0 | 1.0 | 6.0 | 0.00 | 0.05 | 0.05 | 81 | 1015.3 |
| 20260905040033 | 85 | 132 | 2.0 | 8.0 | 0.00 | 0.05 | 0.05 | 81 | 1015.4 |
| 20260905034539 | 85 | 0 | 2.0 | 7.0 | 0.00 | 0.05 | 0.05 | 81 | 1015.4 |
| 20260905033048 | 85 | 140 | 0.0 | 4.0 | 0.00 | 0.05 | 0.05 | 80 | 1015.4 |
| 20260905031539 | 85 | 154 | 2.0 | 6.0 | 0.00 | 0.05 | 0.05 | 80 | 1015.6 |
| 20260905030044 | 86 | 167 | 2.0 | 6.0 | 0.00 | 0.05 | 0.05 | 79 | 1015.4 |
| 20260905024534 | 86 | 125 | 1.0 | 6.0 | 0.00 | 0.05 | 0.05 | 78 | 1015.4 |
| 20260905023038 | 86 | 142 | 1.0 | 7.0 | 0.00 | 0.05 | 0.05 | 77 | 1015.2 |
| 20260905021536 | 87 | 0 | 1.0 | 6.0 | 0.00 | 0.05 | 0.05 | 77 | 1015.2 |
| 20260905020033 | 87 | 137 | 1.0 | 12.0 | 0.00 | 0.05 | 0.05 | 76 | 1014.9 |
| 20260905014535 | 88 | 113 | 1.0 | 8.0 | 0.00 | 0.05 | 0.05 | 75 | 1014.9 |
| 20260905013035 | 88 | 80 | 1.0 | 4.0 | 0.00 | 0.05 | 0.05 | 75 | 1014.7 |
| 20260905011535 | 88 | 110 | 1.0 | 4.0 | 0.00 | 0.05 | 0.05 | 74 | 1014.5 |
| 20260905010036 | 89 | 127 | 2.0 | 6.0 | 0.00 | 0.05 | 0.05 | 72 | 1014.5 |
| 20260905004536 | 89 | 91 | 3.0 | 7.0 | 0.00 | 0.05 | 0.05 | 72 | 1014.5 |
| 20260905003035 | 89 | 88 | 2.0 | 10.0 | 0.00 | 0.05 | 0.05 | 72 | 1014.2 |
| 20260905001535 | 89 | 108 | 4.0 | 9.0 | 0.00 | 0.05 | 0.05 | 71 | 1013.8 |
| 20260905000040 | 90 | 98 | 4.0 | 9.0 | 0.00 | 0.05 | 0.05 | 70 | 1013.9 |
| 20260904234544 | 90 | 66 | 3.0 | 8.0 | 0.00 | 0.05 | 0.05 | 69 | 1013.9 |
| 20260904233036 | 91 | 121 | 3.0 | 8.0 | 0.00 | 0.05 | 0.05 | 67 | 1013.8 |
| 20260904231536 | 91 | 0 | 1.0 | 6.0 | 0.00 | 0.05 | 0.05 | 66 | 1013.8 |
| 20260904230034 | 92 | 121 | 3.0 | 8.0 | 0.00 | 0.05 | 0.05 | 66 | 1013.7 |
| 20260904224541 | 92 | 96 | 3.0 | 7.0 | 0.00 | 0.05 | 0.05 | 66 | 1013.8 |
| 20260904223037 | 91 | 62 | 3.0 | 8.0 | 0.00 | 0.05 | 0.05 | 65 | 1013.6 |
| 20260904221537 | 91 | 84 | 3.0 | 8.0 | 0.00 | 0.05 | 0.05 | 66 | 1013.7 |
| 20260904220036 | 91 | 57 | 4.0 | 8.0 | 0.00 | 0.05 | 0.05 | 67 | 1013.9 |
| 20260904214534 | 91 | 90 | 5.0 | 11.0 | 0.00 | 0.05 | 0.05 | 67 | 1014.0 |
| 20260904213034 | 92 | 53 | 3.0 | 10.0 | 0.00 | 0.05 | 0.05 | 66 | 1014.0 |
| 20260904211535 | 93 | 71 | 5.0 | 13.0 | 0.00 | 0.05 | 0.05 | 63 | 1014.1 |
| 20260904210035 | 96 | 0 | 3.0 | 8.0 | 0.00 | 0.05 | 0.05 | 56 | 1014.1 |
| 20260904204533 | 95 | 164 | 1.0 | 10.0 | 0.00 | 0.05 | 0.05 | 58 | 1014.3 |
| 20260904203042 | 94 | 121 | 2.0 | 7.0 | 0.00 | 0.05 | 0.05 | 58 | 1014.5 |
| 20260904201534 | 94 | 79 | 2.0 | 5.0 | 0.00 | 0.05 | 0.05 | 60 | 1014.7 |